Year,Month,Day,Hour,Minute,Value (Times are PST for temperature in C)
2008,08,16,00,00,18.50
2008,08,16,00,01,18.50
2008,08,16,00,02,18.50
2008,08,16,00,03,18.50
2008,08,16,00,04,18.50
2008,08,16,00,05,18.50
2008,08,16,00,06,18.50
2008,08,16,00,07,18.50
2008,08,16,00,08,18.50
2008,08,16,00,09,18.50
2008,08,16,00,10,18.40
2008,08,16,00,11,18.40
2008,08,16,00,12,18.40
2008,08,16,00,13,18.40
2008,08,16,00,14,18.40
2008,08,16,00,15,18.40
2008,08,16,00,16,18.40
2008,08,16,00,17,18.40
2008,08,16,00,18,18.40
2008,08,16,00,19,18.40
2008,08,16,00,20,18.40
2008,08,16,00,21,18.40
2008,08,16,00,22,18.40
2008,08,16,00,23,18.40
2008,08,16,00,24,18.40
2008,08,16,00,25,18.40
2008,08,16,00,26,18.40
2008,08,16,00,27,18.40
2008,08,16,00,28,18.40
2008,08,16,00,29,18.40
2008,08,16,00,30,18.40
2008,08,16,00,31,18.30
2008,08,16,00,32,18.30
2008,08,16,00,33,18.30
2008,08,16,00,34,18.30
2008,08,16,00,35,18.30
2008,08,16,00,36,18.30
2008,08,16,00,37,18.30
2008,08,16,00,38,18.30
2008,08,16,00,39,18.20
2008,08,16,00,40,18.20
2008,08,16,00,41,18.20
2008,08,16,00,42,18.20
2008,08,16,00,43,18.20
2008,08,16,00,44,18.20
2008,08,16,00,45,18.20
2008,08,16,00,46,18.20
2008,08,16,00,47,18.20
2008,08,16,00,48,18.20
2008,08,16,00,49,18.20
2008,08,16,00,50,18.10
2008,08,16,00,51,18.10
2008,08,16,00,52,18.10
2008,08,16,00,53,18.10
2008,08,16,00,54,18.10
2008,08,16,00,55,18.10
2008,08,16,00,56,18.00
2008,08,16,00,57,17.90
2008,08,16,00,58,17.90
2008,08,16,00,59,17.90
2008,08,16,01,00,17.90
2008,08,16,01,01,17.90
2008,08,16,01,02,17.90
2008,08,16,01,03,17.90
2008,08,16,01,04,17.90
2008,08,16,01,05,17.80
2008,08,16,01,06,17.80
2008,08,16,01,07,17.80
2008,08,16,01,08,17.80
2008,08,16,01,09,17.70
2008,08,16,01,10,17.70
2008,08,16,01,11,17.70
2008,08,16,01,12,17.60
2008,08,16,01,13,17.60
2008,08,16,01,14,17.60
2008,08,16,01,15,17.60
2008,08,16,01,16,17.50
2008,08,16,01,17,17.50
2008,08,16,01,18,17.50
2008,08,16,01,19,17.50
2008,08,16,01,20,17.50
2008,08,16,01,21,17.40
2008,08,16,01,22,17.40
2008,08,16,01,23,17.40
2008,08,16,01,24,17.40
2008,08,16,01,25,17.40
2008,08,16,01,26,17.40
2008,08,16,01,27,17.30
2008,08,16,01,28,17.30
2008,08,16,01,29,17.30
2008,08,16,01,30,17.30
2008,08,16,01,31,17.30
2008,08,16,01,32,17.30
2008,08,16,01,33,17.30
2008,08,16,01,34,17.30
2008,08,16,01,35,17.20
2008,08,16,01,36,17.20
2008,08,16,01,37,17.20
2008,08,16,01,38,17.20
2008,08,16,01,39,17.20
2008,08,16,01,40,17.10
2008,08,16,01,41,17.10
2008,08,16,01,42,17.10
2008,08,16,01,43,17.00
2008,08,16,01,44,17.00
2008,08,16,01,45,17.00
2008,08,16,01,46,17.00
2008,08,16,01,47,17.00
2008,08,16,01,48,17.00
2008,08,16,01,49,17.00
2008,08,16,01,50,16.90
2008,08,16,01,51,16.90
2008,08,16,01,52,16.90
2008,08,16,01,53,16.90
2008,08,16,01,54,16.90
2008,08,16,01,55,16.90
2008,08,16,01,56,16.90
2008,08,16,01,57,16.80
2008,08,16,01,58,16.80
2008,08,16,01,59,16.80
2008,08,16,02,00,16.80
2008,08,16,02,01,16.70
2008,08,16,02,02,16.70
2008,08,16,02,03,16.70
2008,08,16,02,04,16.70
2008,08,16,02,05,16.70
2008,08,16,02,06,16.70
2008,08,16,02,07,16.70
2008,08,16,02,08,16.70
2008,08,16,02,09,16.70
2008,08,16,02,10,16.70
2008,08,16,02,11,16.70
2008,08,16,02,12,16.60
2008,08,16,02,13,16.60
2008,08,16,02,14,16.60
2008,08,16,02,15,16.60
2008,08,16,02,16,16.60
2008,08,16,02,17,16.60
2008,08,16,02,18,16.60
2008,08,16,02,19,16.40
2008,08,16,02,20,16.40
2008,08,16,02,21,16.40
2008,08,16,02,22,16.40
2008,08,16,02,23,16.40
2008,08,16,02,24,16.40
2008,08,16,02,25,16.40
2008,08,16,02,26,16.40
2008,08,16,02,27,16.40
2008,08,16,02,28,16.40
2008,08,16,02,29,16.40
2008,08,16,02,30,16.40
2008,08,16,02,31,16.40
2008,08,16,02,32,16.30
2008,08,16,02,33,16.30
2008,08,16,02,34,16.30
2008,08,16,02,35,16.30
2008,08,16,02,36,16.30
2008,08,16,02,37,16.30
2008,08,16,02,38,16.20
2008,08,16,02,39,16.20
2008,08,16,02,40,16.20
2008,08,16,02,41,16.20
2008,08,16,02,42,16.20
2008,08,16,02,43,16.20
2008,08,16,02,44,16.20
2008,08,16,02,45,16.20
2008,08,16,02,46,16.20
2008,08,16,02,47,16.10
2008,08,16,02,48,16.10
2008,08,16,02,49,16.10
2008,08,16,02,50,16.10
2008,08,16,02,51,16.10
2008,08,16,02,52,16.10
2008,08,16,02,53,16.10
2008,08,16,02,54,16.10
2008,08,16,02,55,16.10
2008,08,16,02,56,16.10
2008,08,16,02,57,16.10
2008,08,16,02,58,16.10
2008,08,16,02,59,16.10
2008,08,16,03,00,16.10
2008,08,16,03,01,16.10
2008,08,16,03,02,16.10
2008,08,16,03,03,16.10
2008,08,16,03,04,16.10
2008,08,16,03,05,16.10
2008,08,16,03,06,16.10
2008,08,16,03,07,16.10
2008,08,16,03,08,16.10
2008,08,16,03,09,16.10
2008,08,16,03,10,16.10
2008,08,16,03,11,16.00
2008,08,16,03,12,15.90
2008,08,16,03,13,15.90
2008,08,16,03,14,15.90
2008,08,16,03,15,15.90
2008,08,16,03,16,15.90
2008,08,16,03,17,15.90
2008,08,16,03,18,15.90
2008,08,16,03,19,15.90
2008,08,16,03,20,15.90
2008,08,16,03,21,15.90
2008,08,16,03,22,15.90
2008,08,16,03,23,15.90
2008,08,16,03,24,15.90
2008,08,16,03,25,15.90
2008,08,16,03,26,15.90
2008,08,16,03,27,16.00
2008,08,16,03,28,16.10
2008,08,16,03,29,16.10
2008,08,16,03,30,16.10
2008,08,16,03,31,16.10
2008,08,16,03,32,16.10
2008,08,16,03,33,16.10
2008,08,16,03,34,16.10
2008,08,16,03,35,16.10
2008,08,16,03,36,16.10
2008,08,16,03,37,16.10
2008,08,16,03,38,16.10
2008,08,16,03,39,16.10
2008,08,16,03,40,16.20
2008,08,16,03,41,16.20
2008,08,16,03,42,16.20
2008,08,16,03,43,16.20
2008,08,16,03,44,16.20
2008,08,16,03,45,16.30
2008,08,16,03,46,16.30
2008,08,16,03,47,16.30
2008,08,16,03,48,16.30
2008,08,16,03,49,16.30
2008,08,16,03,50,16.40
2008,08,16,03,51,16.40
2008,08,16,03,52,16.40
2008,08,16,03,53,16.40
2008,08,16,03,54,16.40
2008,08,16,03,55,16.40
2008,08,16,03,56,16.40
2008,08,16,03,57,16.40
2008,08,16,03,58,16.40
2008,08,16,03,59,16.40
2008,08,16,04,00,16.40
2008,08,16,04,01,16.60
2008,08,16,04,02,16.60
2008,08,16,04,03,16.60
2008,08,16,04,04,16.60
2008,08,16,04,05,16.60
2008,08,16,04,06,16.60
2008,08,16,04,07,16.60
2008,08,16,04,08,16.60
2008,08,16,04,09,16.70
2008,08,16,04,10,16.70
2008,08,16,04,11,16.70
2008,08,16,04,12,16.70
2008,08,16,04,13,16.70
2008,08,16,04,14,16.70
2008,08,16,04,15,16.70
2008,08,16,04,16,16.70
2008,08,16,04,17,16.70
2008,08,16,04,18,16.70
2008,08,16,04,19,16.80
2008,08,16,04,20,16.80
2008,08,16,04,21,16.80
2008,08,16,04,22,16.80
2008,08,16,04,23,16.80
2008,08,16,04,24,16.90
2008,08,16,04,25,16.90
2008,08,16,04,26,16.90
2008,08,16,04,27,16.90
2008,08,16,04,28,16.90
2008,08,16,04,29,16.90
2008,08,16,04,30,16.90
2008,08,16,04,31,16.90
2008,08,16,04,32,16.90
2008,08,16,04,33,16.90
2008,08,16,04,34,17.00
2008,08,16,04,35,17.00
2008,08,16,04,36,17.00
2008,08,16,04,37,17.00
2008,08,16,04,38,17.00
2008,08,16,04,39,17.00
2008,08,16,04,40,17.00
2008,08,16,04,41,17.00
2008,08,16,04,42,17.00
2008,08,16,04,43,17.00
2008,08,16,04,44,17.00
2008,08,16,04,45,17.00
2008,08,16,04,46,17.00
2008,08,16,04,47,17.00
2008,08,16,04,48,17.00
2008,08,16,04,49,17.10
2008,08,16,04,50,17.10
2008,08,16,04,51,17.10
2008,08,16,04,52,17.10
2008,08,16,04,53,17.10
2008,08,16,04,54,17.10
2008,08,16,04,55,17.10
2008,08,16,04,56,17.10
2008,08,16,04,57,17.10
2008,08,16,04,58,17.10
2008,08,16,04,59,17.10
2008,08,16,05,00,17.10
2008,08,16,05,01,17.10
2008,08,16,05,02,17.10
2008,08,16,05,03,17.10
2008,08,16,05,04,17.10
2008,08,16,05,05,17.10
2008,08,16,05,06,17.10
2008,08,16,05,07,17.10
2008,08,16,05,08,17.10
2008,08,16,05,09,17.10
2008,08,16,05,10,17.10
2008,08,16,05,11,17.10
2008,08,16,05,12,17.10
2008,08,16,05,13,17.10
2008,08,16,05,14,17.10
2008,08,16,05,15,17.10
2008,08,16,05,16,17.10
2008,08,16,05,17,17.10
2008,08,16,05,18,17.10
2008,08,16,05,19,17.10
2008,08,16,05,20,17.10
2008,08,16,05,21,17.10
2008,08,16,05,22,17.10
2008,08,16,05,23,17.10
2008,08,16,05,24,17.10
2008,08,16,05,25,17.10
2008,08,16,05,26,17.10
2008,08,16,05,27,17.10
2008,08,16,05,28,17.10
2008,08,16,05,29,17.10
2008,08,16,05,30,17.10
2008,08,16,05,31,17.10
2008,08,16,05,32,17.10
2008,08,16,05,33,17.10
2008,08,16,05,34,17.10
2008,08,16,05,35,17.10
2008,08,16,05,36,17.10
2008,08,16,05,37,17.10
2008,08,16,05,38,17.10
2008,08,16,05,39,17.10
2008,08,16,05,40,17.10
2008,08,16,05,41,17.10
2008,08,16,05,42,17.10
2008,08,16,05,43,17.10
2008,08,16,05,44,17.10
2008,08,16,05,45,17.10
2008,08,16,05,46,17.10
2008,08,16,05,47,17.10
2008,08,16,05,48,17.10
2008,08,16,05,49,17.10
2008,08,16,05,50,17.00
2008,08,16,05,51,17.00
2008,08,16,05,52,17.00
2008,08,16,05,53,17.00
2008,08,16,05,54,17.00
2008,08,16,05,55,17.00
2008,08,16,05,56,17.00
2008,08,16,05,57,17.00
2008,08,16,05,58,17.00
2008,08,16,05,59,17.00
2008,08,16,06,00,17.00
2008,08,16,06,01,17.00
2008,08,16,06,02,17.00
2008,08,16,06,03,17.00
2008,08,16,06,04,17.00
2008,08,16,06,05,17.00
2008,08,16,06,06,17.00
2008,08,16,06,07,17.00
2008,08,16,06,08,17.00
2008,08,16,06,09,17.00
2008,08,16,06,10,17.00
2008,08,16,06,11,17.00
2008,08,16,06,12,17.00
2008,08,16,06,13,17.00
2008,08,16,06,14,17.00
2008,08,16,06,15,17.00
2008,08,16,06,16,17.00
2008,08,16,06,17,17.00
2008,08,16,06,18,17.00
2008,08,16,06,19,17.00
2008,08,16,06,20,17.00
2008,08,16,06,21,17.00
2008,08,16,06,22,17.00
2008,08,16,06,23,17.00
2008,08,16,06,24,17.00
2008,08,16,06,25,17.00
2008,08,16,06,26,17.00
2008,08,16,06,27,17.00
2008,08,16,06,28,17.00
2008,08,16,06,29,17.00
2008,08,16,06,30,17.00
2008,08,16,06,31,17.00
2008,08,16,06,32,17.00
2008,08,16,06,33,17.00
2008,08,16,06,34,17.00
2008,08,16,06,35,17.00
2008,08,16,06,36,17.00
2008,08,16,06,37,17.00
2008,08,16,06,38,17.00
2008,08,16,06,39,17.00
2008,08,16,06,40,16.90
2008,08,16,06,41,17.00
2008,08,16,06,42,17.00
2008,08,16,06,43,17.00
2008,08,16,06,44,17.00
2008,08,16,06,45,17.00
2008,08,16,06,46,17.00
2008,08,16,06,47,17.00
2008,08,16,06,48,17.00
2008,08,16,06,49,17.00
2008,08,16,06,50,17.00
2008,08,16,06,51,17.00
2008,08,16,06,52,17.00
2008,08,16,06,53,17.00
2008,08,16,06,54,17.00
2008,08,16,06,55,17.00
2008,08,16,06,56,17.00
2008,08,16,06,57,17.00
2008,08,16,06,58,17.00
2008,08,16,06,59,17.00
2008,08,16,07,00,17.00
2008,08,16,07,01,17.00
2008,08,16,07,02,17.00
2008,08,16,07,03,17.00
2008,08,16,07,04,17.00
2008,08,16,07,05,17.00
2008,08,16,07,06,17.00
2008,08,16,07,07,17.00
2008,08,16,07,08,17.00
2008,08,16,07,09,17.00
2008,08,16,07,10,17.00
2008,08,16,07,11,17.00
2008,08,16,07,12,17.10
2008,08,16,07,13,17.10
2008,08,16,07,14,17.10
2008,08,16,07,15,17.10
2008,08,16,07,16,17.10
2008,08,16,07,17,17.20
2008,08,16,07,18,17.20
2008,08,16,07,19,17.20
2008,08,16,07,20,17.20
2008,08,16,07,21,17.20
2008,08,16,07,22,17.30
2008,08,16,07,23,17.30
2008,08,16,07,24,17.30
2008,08,16,07,25,17.30
2008,08,16,07,26,17.30
2008,08,16,07,27,17.30
2008,08,16,07,28,17.30
2008,08,16,07,29,17.40
2008,08,16,07,30,17.40
2008,08,16,07,31,17.40
2008,08,16,07,32,17.50
2008,08,16,07,33,17.50
2008,08,16,07,34,17.50
2008,08,16,07,35,17.60
2008,08,16,07,36,17.60
2008,08,16,07,37,17.60
2008,08,16,07,38,17.60
2008,08,16,07,39,17.80
2008,08,16,07,40,17.80
2008,08,16,07,41,17.90
2008,08,16,07,42,17.90
2008,08,16,07,43,17.90
2008,08,16,07,44,17.90
2008,08,16,07,45,17.90
2008,08,16,07,46,18.00
2008,08,16,07,47,18.10
2008,08,16,07,48,18.10
2008,08,16,07,49,18.20
2008,08,16,07,50,18.20
2008,08,16,07,51,18.20
2008,08,16,07,52,18.30
2008,08,16,07,53,18.30
2008,08,16,07,54,18.30
2008,08,16,07,55,18.40
2008,08,16,07,56,18.40
2008,08,16,07,57,18.40
2008,08,16,07,58,18.40
2008,08,16,07,59,18.50
2008,08,16,08,00,18.50
2008,08,16,08,01,18.60
2008,08,16,08,02,18.60
2008,08,16,08,03,18.70
2008,08,16,08,04,18.70
2008,08,16,08,05,18.80
2008,08,16,08,06,18.80
2008,08,16,08,07,18.90
2008,08,16,08,08,18.90
2008,08,16,08,09,18.90
2008,08,16,08,10,19.00
2008,08,16,08,11,19.10
2008,08,16,08,12,19.10
2008,08,16,08,13,19.10
2008,08,16,08,14,19.20
2008,08,16,08,15,19.20
2008,08,16,08,16,19.30
2008,08,16,08,17,19.30
2008,08,16,08,18,19.40
2008,08,16,08,19,19.50
2008,08,16,08,20,19.50
2008,08,16,08,21,19.60
2008,08,16,08,22,19.60
2008,08,16,08,23,19.70
2008,08,16,08,24,19.80
2008,08,16,08,25,19.90
2008,08,16,08,26,19.90
2008,08,16,08,27,20.00
2008,08,16,08,28,20.10
2008,08,16,08,29,20.20
2008,08,16,08,30,20.20
2008,08,16,08,31,20.30
2008,08,16,08,32,20.50
2008,08,16,08,33,20.60
2008,08,16,08,34,20.70
2008,08,16,08,35,20.80
2008,08,16,08,36,20.90
2008,08,16,08,37,21.00
2008,08,16,08,38,21.10
2008,08,16,08,39,21.30
2008,08,16,08,40,21.40
2008,08,16,08,41,21.50
2008,08,16,08,42,21.60
2008,08,16,08,43,21.70
2008,08,16,08,44,21.80
2008,08,16,08,45,22.00
2008,08,16,08,46,22.00
2008,08,16,08,47,22.10
2008,08,16,08,48,22.20
2008,08,16,08,49,22.30
2008,08,16,08,50,22.40
2008,08,16,08,51,22.50
2008,08,16,08,52,22.60
2008,08,16,08,53,22.70
2008,08,16,08,54,22.70
2008,08,16,08,55,22.80
2008,08,16,08,56,22.90
2008,08,16,08,57,22.90
2008,08,16,08,58,22.90
2008,08,16,08,59,23.00
2008,08,16,09,00,23.10
2008,08,16,09,01,23.20
2008,08,16,09,02,23.20
2008,08,16,09,03,23.30
2008,08,16,09,04,23.30
2008,08,16,09,05,23.30
2008,08,16,09,06,23.40
2008,08,16,09,07,23.40
2008,08,16,09,08,23.50
2008,08,16,09,09,23.60
2008,08,16,09,10,23.60
2008,08,16,09,11,23.70
2008,08,16,09,12,23.70
2008,08,16,09,13,23.70
2008,08,16,09,14,23.70
2008,08,16,09,15,23.70
2008,08,16,09,16,23.70
2008,08,16,09,17,23.70
2008,08,16,09,18,23.60
2008,08,16,09,19,23.60
2008,08,16,09,20,23.60
2008,08,16,09,21,23.60
2008,08,16,09,22,23.60
2008,08,16,09,23,23.70
2008,08,16,09,24,23.70
2008,08,16,09,25,23.70
2008,08,16,09,26,23.70
2008,08,16,09,27,23.70
2008,08,16,09,28,23.70
2008,08,16,09,29,23.70
2008,08,16,09,30,23.70
2008,08,16,09,31,23.80
2008,08,16,09,32,23.90
2008,08,16,09,33,23.90
2008,08,16,09,34,23.90
2008,08,16,09,35,23.90
2008,08,16,09,36,23.90
2008,08,16,09,37,24.00
2008,08,16,09,38,24.10
2008,08,16,09,39,24.10
2008,08,16,09,40,24.10
2008,08,16,09,41,24.10
2008,08,16,09,42,24.10
2008,08,16,09,43,24.10
2008,08,16,09,44,24.10
2008,08,16,09,45,24.10
2008,08,16,09,46,24.10
2008,08,16,09,47,24.20
2008,08,16,09,48,24.20
2008,08,16,09,49,24.30
2008,08,16,09,50,24.40
2008,08,16,09,51,24.50
2008,08,16,09,52,24.50
2008,08,16,09,53,24.60
2008,08,16,09,54,24.60
2008,08,16,09,55,24.60
2008,08,16,09,56,24.70
2008,08,16,09,57,24.80
2008,08,16,09,58,24.90
2008,08,16,09,59,25.00
2008,08,16,10,00,25.00
2008,08,16,10,01,25.10
2008,08,16,10,02,25.20
2008,08,16,10,03,25.30
2008,08,16,10,04,25.30
2008,08,16,10,05,25.30
2008,08,16,10,06,25.30
2008,08,16,10,07,25.40
2008,08,16,10,08,25.40
2008,08,16,10,09,25.40
2008,08,16,10,10,25.30
2008,08,16,10,11,25.30
2008,08,16,10,12,25.30
2008,08,16,10,13,25.40
2008,08,16,10,14,25.40
2008,08,16,10,15,25.40
2008,08,16,10,16,25.40
2008,08,16,10,17,25.30
2008,08,16,10,18,25.20
2008,08,16,10,19,25.10
2008,08,16,10,20,25.20
2008,08,16,10,21,25.30
2008,08,16,10,22,25.40
2008,08,16,10,23,25.50
2008,08,16,10,24,25.50
2008,08,16,10,25,25.50
2008,08,16,10,26,25.50
2008,08,16,10,27,25.50
2008,08,16,10,28,25.50
2008,08,16,10,29,25.50
2008,08,16,10,30,25.50
2008,08,16,10,31,25.50
2008,08,16,10,32,25.50
2008,08,16,10,33,25.50
2008,08,16,10,34,25.50
2008,08,16,10,35,25.50
2008,08,16,10,36,25.50
2008,08,16,10,37,25.40
2008,08,16,10,38,25.40
2008,08,16,10,39,25.40
2008,08,16,10,40,25.40
2008,08,16,10,41,25.40
2008,08,16,10,42,25.40
2008,08,16,10,43,25.50
2008,08,16,10,44,25.40
2008,08,16,10,45,25.40
2008,08,16,10,46,25.40
2008,08,16,10,47,25.40
2008,08,16,10,48,25.40
2008,08,16,10,49,25.40
2008,08,16,10,50,25.40
2008,08,16,10,51,25.40
2008,08,16,10,52,25.40
2008,08,16,10,53,25.50
2008,08,16,10,54,25.50
2008,08,16,10,55,25.50
2008,08,16,10,56,25.50
2008,08,16,10,57,25.50
2008,08,16,10,58,25.60
2008,08,16,10,59,25.60
2008,08,16,11,00,25.50
2008,08,16,11,01,25.50
2008,08,16,11,02,25.50
2008,08,16,11,03,25.40
2008,08,16,11,04,25.30
2008,08,16,11,05,25.20
2008,08,16,11,06,25.20
2008,08,16,11,07,25.00
2008,08,16,11,08,24.90
2008,08,16,11,09,24.90
2008,08,16,11,10,24.90
2008,08,16,11,11,24.90
2008,08,16,11,12,24.90
2008,08,16,11,13,24.90
2008,08,16,11,14,24.90
2008,08,16,11,15,24.80
2008,08,16,11,16,24.70
2008,08,16,11,17,24.60
2008,08,16,11,18,24.60
2008,08,16,11,19,24.60
2008,08,16,11,20,24.60
2008,08,16,11,21,24.80
2008,08,16,11,22,24.90
2008,08,16,11,23,25.00
2008,08,16,11,24,25.10
2008,08,16,11,25,25.10
2008,08,16,11,26,25.20
2008,08,16,11,27,25.40
2008,08,16,11,28,25.40
2008,08,16,11,29,25.60
2008,08,16,11,30,25.60
2008,08,16,11,31,25.60
2008,08,16,11,32,25.70
2008,08,16,11,33,25.70
2008,08,16,11,34,25.70
2008,08,16,11,35,25.80
2008,08,16,11,36,25.90
2008,08,16,11,37,25.90
2008,08,16,11,38,26.00
2008,08,16,11,39,26.10
2008,08,16,11,40,26.10
2008,08,16,11,41,26.20
2008,08,16,11,42,26.20
2008,08,16,11,43,26.20
2008,08,16,11,44,26.30
2008,08,16,11,45,26.30
2008,08,16,11,46,26.30
2008,08,16,11,47,26.20
2008,08,16,11,48,26.10
2008,08,16,11,49,26.00
2008,08,16,11,50,26.00
2008,08,16,11,51,26.00
2008,08,16,11,52,26.10
2008,08,16,11,53,26.20
2008,08,16,11,54,26.20
2008,08,16,11,55,26.20
2008,08,16,11,56,26.20
2008,08,16,11,57,26.20
2008,08,16,11,58,26.20
2008,08,16,11,59,26.30
2008,08,16,12,00,26.40
2008,08,16,12,01,26.40
2008,08,16,12,02,26.30
2008,08,16,12,03,26.30
2008,08,16,12,04,26.30
2008,08,16,12,05,26.40
2008,08,16,12,06,26.50
2008,08,16,12,07,26.70
2008,08,16,12,08,26.80
2008,08,16,12,09,26.80
2008,08,16,12,10,26.90
2008,08,16,12,11,27.00
2008,08,16,12,12,27.10
2008,08,16,12,13,27.20
2008,08,16,12,14,27.20
2008,08,16,12,15,27.10
2008,08,16,12,16,27.10
2008,08,16,12,17,27.00
2008,08,16,12,18,26.90
2008,08,16,12,19,26.80
2008,08,16,12,20,26.70
2008,08,16,12,21,26.70
2008,08,16,12,22,26.80
2008,08,16,12,23,26.80
2008,08,16,12,24,26.80
2008,08,16,12,25,26.80
2008,08,16,12,26,26.80
2008,08,16,12,27,26.70
2008,08,16,12,28,26.70
2008,08,16,12,29,26.70
2008,08,16,12,30,26.70
2008,08,16,12,31,26.80
2008,08,16,12,32,26.90
2008,08,16,12,33,26.90
2008,08,16,12,34,27.00
2008,08,16,12,35,27.20
2008,08,16,12,36,27.20
2008,08,16,12,37,27.30
2008,08,16,12,38,27.40
2008,08,16,12,39,27.60
2008,08,16,12,40,27.60
2008,08,16,12,41,27.60
2008,08,16,12,42,27.60
2008,08,16,12,43,27.60
2008,08,16,12,44,27.50
2008,08,16,12,45,27.40
2008,08,16,12,46,27.30
2008,08,16,12,47,27.40
2008,08,16,12,48,27.40
2008,08,16,12,49,27.60
2008,08,16,12,50,27.70
2008,08,16,12,51,27.80
2008,08,16,12,52,27.90
2008,08,16,12,53,27.90
2008,08,16,12,54,27.90
2008,08,16,12,55,27.90
2008,08,16,12,56,27.90
2008,08,16,12,57,27.90
2008,08,16,12,58,27.90
2008,08,16,12,59,27.90
2008,08,16,13,00,28.00
2008,08,16,13,01,28.10
2008,08,16,13,02,28.10
2008,08,16,13,03,28.20
2008,08,16,13,04,28.20
2008,08,16,13,05,28.20
2008,08,16,13,06,28.10
2008,08,16,13,07,27.90
2008,08,16,13,08,27.90
2008,08,16,13,09,27.90
2008,08,16,13,10,27.80
2008,08,16,13,11,27.80
2008,08,16,13,12,27.90
2008,08,16,13,13,28.00
2008,08,16,13,14,28.10
2008,08,16,13,15,28.20
2008,08,16,13,16,28.20
2008,08,16,13,17,28.20
2008,08,16,13,18,28.20
2008,08,16,13,19,28.20
2008,08,16,13,20,28.30
2008,08,16,13,21,28.30
2008,08,16,13,22,28.30
2008,08,16,13,23,28.40
2008,08,16,13,24,28.40
2008,08,16,13,25,28.50
2008,08,16,13,26,28.50
2008,08,16,13,27,28.30
2008,08,16,13,28,28.20
2008,08,16,13,29,28.10
2008,08,16,13,30,28.10
2008,08,16,13,31,28.10
2008,08,16,13,32,28.10
2008,08,16,13,33,28.10
2008,08,16,13,34,28.10
2008,08,16,13,35,28.00
2008,08,16,13,36,27.90
2008,08,16,13,37,27.70
2008,08,16,13,38,27.60
2008,08,16,13,39,27.60
2008,08,16,13,40,27.60
2008,08,16,13,41,27.50
2008,08,16,13,42,27.40
2008,08,16,13,43,27.40
2008,08,16,13,44,27.30
2008,08,16,13,45,27.30
2008,08,16,13,46,27.30
2008,08,16,13,47,27.20
2008,08,16,13,48,27.20
2008,08,16,13,49,27.10
2008,08,16,13,50,27.10
2008,08,16,13,51,27.00
2008,08,16,13,52,26.90
2008,08,16,13,53,26.80
2008,08,16,13,54,26.80
2008,08,16,13,55,26.80
2008,08,16,13,56,26.80
2008,08,16,13,57,26.60
2008,08,16,13,58,26.60
2008,08,16,13,59,26.50
2008,08,16,14,00,26.40
2008,08,16,14,01,26.40
2008,08,16,14,02,26.60
2008,08,16,14,03,26.70
2008,08,16,14,04,26.70
2008,08,16,14,05,26.70
2008,08,16,14,06,26.70
2008,08,16,14,07,26.70
2008,08,16,14,08,26.60
2008,08,16,14,09,26.50
2008,08,16,14,10,26.30
2008,08,16,14,11,26.10
2008,08,16,14,12,26.00
2008,08,16,14,13,25.90
2008,08,16,14,14,25.90
2008,08,16,14,15,25.80
2008,08,16,14,16,25.80
2008,08,16,14,17,25.80
2008,08,16,14,18,25.90
2008,08,16,14,19,25.90
2008,08,16,14,20,25.90
2008,08,16,14,21,26.10
2008,08,16,14,22,26.20
2008,08,16,14,23,26.20
2008,08,16,14,24,26.20
2008,08,16,14,25,26.30
2008,08,16,14,26,26.30
2008,08,16,14,27,26.30
2008,08,16,14,28,26.30
2008,08,16,14,29,26.30
2008,08,16,14,30,26.40
2008,08,16,14,31,26.40
2008,08,16,14,32,26.40
2008,08,16,14,33,26.40
2008,08,16,14,34,26.40
2008,08,16,14,35,26.40
2008,08,16,14,36,26.40
2008,08,16,14,37,26.30
2008,08,16,14,38,26.30
2008,08,16,14,39,26.30
2008,08,16,14,40,26.40
2008,08,16,14,41,26.40
2008,08,16,14,42,26.50
2008,08,16,14,43,26.60
2008,08,16,14,44,26.60
2008,08,16,14,45,26.60
2008,08,16,14,46,26.60
2008,08,16,14,47,26.70
2008,08,16,14,48,26.70
2008,08,16,14,49,26.80
2008,08,16,14,50,26.80
2008,08,16,14,51,26.80
2008,08,16,14,52,26.90
2008,08,16,14,53,26.90
2008,08,16,14,54,26.90
2008,08,16,14,55,26.90
2008,08,16,14,56,26.90
2008,08,16,14,57,27.10
2008,08,16,14,58,27.10
2008,08,16,14,59,27.10
2008,08,16,15,00,27.20
2008,08,16,15,01,27.20
2008,08,16,15,02,27.20
2008,08,16,15,03,27.20
2008,08,16,15,04,27.20
2008,08,16,15,05,27.10
2008,08,16,15,06,26.80
2008,08,16,15,07,26.60
2008,08,16,15,08,26.50
2008,08,16,15,09,26.30
2008,08,16,15,10,26.30
2008,08,16,15,11,26.30
2008,08,16,15,12,26.30
2008,08,16,15,13,26.40
2008,08,16,15,14,26.50
2008,08,16,15,15,26.60
2008,08,16,15,16,26.60
2008,08,16,15,17,26.70
2008,08,16,15,18,26.90
2008,08,16,15,19,27.00
2008,08,16,15,20,27.10
2008,08,16,15,21,27.30
2008,08,16,15,22,27.50
2008,08,16,15,23,27.70
2008,08,16,15,24,27.80
2008,08,16,15,25,27.90
2008,08,16,15,26,27.90
2008,08,16,15,27,27.90
2008,08,16,15,28,27.80
2008,08,16,15,29,27.70
2008,08,16,15,30,27.60
2008,08,16,15,31,27.40
2008,08,16,15,32,27.40
2008,08,16,15,33,27.30
2008,08,16,15,34,27.30
2008,08,16,15,35,27.40
2008,08,16,15,36,27.40
2008,08,16,15,37,27.30
2008,08,16,15,38,27.30
2008,08,16,15,39,27.30
2008,08,16,15,40,27.20
2008,08,16,15,41,27.10
2008,08,16,15,42,27.10
2008,08,16,15,43,27.20
2008,08,16,15,44,27.20
2008,08,16,15,45,27.30
2008,08,16,15,46,27.30
2008,08,16,15,47,27.30
2008,08,16,15,48,27.30
2008,08,16,15,49,27.30
2008,08,16,15,50,27.30
2008,08,16,15,51,27.30
2008,08,16,15,52,27.30
2008,08,16,15,53,27.30
2008,08,16,15,54,27.30
2008,08,16,15,55,27.30
2008,08,16,15,56,27.30
2008,08,16,15,57,27.30
2008,08,16,15,58,27.30
2008,08,16,15,59,27.30
2008,08,16,16,00,27.30
2008,08,16,16,01,27.30
2008,08,16,16,02,27.30
2008,08,16,16,03,27.40
2008,08,16,16,04,27.40
2008,08,16,16,05,27.40
2008,08,16,16,06,27.50
2008,08,16,16,07,27.60
2008,08,16,16,08,27.50
2008,08,16,16,09,27.40
2008,08,16,16,10,27.40
2008,08,16,16,11,27.50
2008,08,16,16,12,27.50
2008,08,16,16,13,27.40
2008,08,16,16,14,27.40
2008,08,16,16,15,27.30
2008,08,16,16,16,27.30
2008,08,16,16,17,27.30
2008,08,16,16,18,27.30
2008,08,16,16,19,27.30
2008,08,16,16,20,27.30
2008,08,16,16,21,27.30
2008,08,16,16,22,27.30
2008,08,16,16,23,27.30
2008,08,16,16,24,27.40
2008,08,16,16,25,27.50
2008,08,16,16,26,27.70
2008,08,16,16,27,27.80
2008,08,16,16,28,27.80
2008,08,16,16,29,27.80
2008,08,16,16,30,27.80
2008,08,16,16,31,27.70
2008,08,16,16,32,27.70
2008,08,16,16,33,27.60
2008,08,16,16,34,27.50
2008,08,16,16,35,27.40
2008,08,16,16,36,27.30
2008,08,16,16,37,27.30
2008,08,16,16,38,27.30
2008,08,16,16,39,27.30
2008,08,16,16,40,27.30
2008,08,16,16,41,27.30
2008,08,16,16,42,27.30
2008,08,16,16,43,27.30
2008,08,16,16,44,27.40
2008,08,16,16,45,27.40
2008,08,16,16,46,27.40
2008,08,16,16,47,27.50
2008,08,16,16,48,27.60
2008,08,16,16,49,27.60
2008,08,16,16,50,27.70
2008,08,16,16,51,27.80
2008,08,16,16,52,27.90
2008,08,16,16,53,28.00
2008,08,16,16,54,28.10
2008,08,16,16,55,28.20
2008,08,16,16,56,28.30
2008,08,16,16,57,28.40
2008,08,16,16,58,28.60
2008,08,16,16,59,28.60
2008,08,16,17,00,28.60
2008,08,16,17,01,28.50
2008,08,16,17,02,28.40
2008,08,16,17,03,28.30
2008,08,16,17,04,28.30
2008,08,16,17,05,28.20
2008,08,16,17,06,28.20
2008,08,16,17,07,28.20
2008,08,16,17,08,28.20
2008,08,16,17,09,28.20
2008,08,16,17,10,28.20
2008,08,16,17,11,28.30
2008,08,16,17,12,28.30
2008,08,16,17,13,28.40
2008,08,16,17,14,28.50
2008,08,16,17,15,28.60
2008,08,16,17,16,28.60
2008,08,16,17,17,28.70
2008,08,16,17,18,28.70
2008,08,16,17,19,28.70